Regional Weather Roundup
Issued by NWS

Home | Current Version | Previous Version | Text Only | Print | Product List | Glossary Off
Versions: 1 2 3 4 5 6 7 8 9 10 11 12 13 14 15 16 17 18 19 20 21 22 23 24 25 26 27 28 29 30 31 32 33 34 35 36 37 38 39 40 41 42 43 44 45 46 47 48 49 50

177
ASUS45 KABQ 251810
RWRNM
NEW MEXICO REGIONAL WEATHER ROUNDUP
NATIONAL WEATHER SERVICE ALBUQUERQUE NM
1200 PM MDT MON JUL 25 2016

NOTE: "FAIR" MEANS FEW OR NO CLOUDS BELOW 12,000 FEET AGL WITH NO
       SIGNIFICANT WEATHER OR OBSTRUCTIONS TO VISION.

      THIS PRODUCT IS RELEASED AS TWO VERSIONS.  ONE VERSION NEAR
      THE TOP OF THE HOUR CONTAINING PRELIMINARY DATA FROM ALBUQUERQUE
      AND OTHER STATIONS.  A FINAL VERSION WITH ADDITIONAL DATA IS
      ISSUED ABOUT 10 MINUTES AFTER THE HOUR.

NMZ501-503-504-510>518-251900-
NORTHWEST PLATEAU/NORTHCENTRAL MOUNTAINS

CITY           SKY/WX    TMP DP  RH WIND       PRES   REMARKS
FARMINGTON     FAIR      90  48  23 NE7       30.23F
6HR MIN TEMP:  70; 6HR MAX TEMP:  90;

LOS ALAMOS     FAIR      81  45  28 CALM      30.39F
SANTA FE       FAIR      86  47  25 N6        30.32F
6HR MIN TEMP:  62; 6HR MAX TEMP:  86;

TAOS           FAIR      79  41  25 N3          N/A
ANGEL FIRE     FAIR      76  44  32 SE3       30.47F

$$
NMZ402-403-502-505>509-251900-
WESTCENTRAL MOUNTAINS/SOUTHWEST MOUNTAINS

CITY           SKY/WX    TMP DP  RH WIND       PRES   REMARKS
GALLUP           N/A     86  47  25 W9        30.32F
6HR MIN TEMP:   0; 6HR MAX TEMP:  86;

GRANTS         FAIR      85  45  24 S9        30.34F
SILVER CITY    FAIR      86  48  26 CALM      30.23F

$$
NMZ407-409-411-412-251900-
SOUTHERN DESERTS

CITY           SKY/WX    TMP DP  RH WIND       PRES   REMARKS
LORDSBURG      FAIR      90  52  27 NW10G21   30.16F
DEMING         FAIR      93  55  27 VRB7      30.14F
6HR MIN TEMP:  70; 6HR MAX TEMP:  93;

LAS CRUCES     FAIR      93  50  22 E8        30.16F
HOLLOMAN AFB   FAIR      92  53  26 VRB3      30.11F
ALAMOGORDO     FAIR      91  54  27 SE7       30.13F
T OR C         FAIR      89  53  29 VRB5      30.19F
6HR MIN TEMP:  74; 6HR MAX TEMP:  89;


$$
NMZ519>523-251900-
CENTRAL VALLEYS/CENTRAL HIGHLANDS

CITY           SKY/WX    TMP DP  RH WIND       PRES   REMARKS
ALBUQUERQUE    FAIR      88  49  25 CALM      30.25F
6HR MIN TEMP:  68; 6HR MAX TEMP:  88;

DOUBLE EAGLE   MOSUNNY   84  50  30 VRB6      30.30F
MORIARTY ARPT  FAIR      81  49  33 S6        30.34F
6HR MIN TEMP:  58; 6HR MAX TEMP:  81;

CLINES CORNERS FAIR      79  52  38 NE7       30.39F
6HR MIN TEMP:  62; 6HR MAX TEMP:  80;

BELEN          FAIR      85  47  26 SE3       30.24F
6HR MIN TEMP:  68; 6HR MAX TEMP:  87;

SOCORRO        FAIR      88  48  25 SW3       30.21F
6HR MIN TEMP:  71; 6HR MAX TEMP:  89;


$$
NMZ524>526-539-540-251900-
SOUTHCENTRAL MOUNTAINS

CITY           SKY/WX    TMP DP  RH WIND       PRES   REMARKS
RUIDOSO          N/A     82  45  26 SE9G17    30.38F

$$
NMZ527>531-251900-
NORTHEAST HIGHLANDS/NORTHEAST PLAINS

CITY           SKY/WX    TMP DP  RH WIND       PRES   REMARKS
LAS VEGAS      CLOUDY    82  51  34 S15G22    30.36F
6HR MIN TEMP:  53; 6HR MAX TEMP:  82;

RATON          FAIR      77  53  43 E7        30.31F
6HR MIN TEMP:  52; 6HR MAX TEMP:  77;

CLAYTON        FAIR      84  59  42 VRB6      30.24F
6HR MIN TEMP:  61; 6HR MAX TEMP:  85;


$$
NMZ532>537-251900-
EASTCENTRAL PLAINS

CITY           SKY/WX    TMP DP  RH WIND       PRES   REMARKS
TUCUMCARI      FAIR      91  57  31 E7        30.16F
6HR MIN TEMP:  68; 6HR MAX TEMP:  92;

CANNON AFB     FAIR      90  56  31 VRB2      30.18S
6HR MIN TEMP:  67; 6HR MAX TEMP:  90;

CLOVIS AIRPORT FAIR      90  57  33 CALM      30.18F

$$
NMZ028-029-538-251900-
SOUTHEAST PLAINS

CITY           SKY/WX    TMP DP  RH WIND       PRES   REMARKS
ROSWELL        FAIR      93  54  26 CALM      30.12F
6HR MIN TEMP:  74; 6HR MAX TEMP:  95;

ARTESIA        FAIR      93  57  29 VRB6      30.11F
CARLSBAD       FAIR      93  56  28 MISG      30.08F
6HR MIN TEMP:  74; 6HR MAX TEMP:  95;

HOBBS          PTSUNNY   91  55  29 VRB5      30.13F


$$




USA.gov is the U.S. government's official web portal to all federal, state and local government web resources and services.